Victoria, TX

1:20 AM CDT on October 23, 2017 (GMT -0500)
Victoria Regional

Weather History for KVCT - September, 2013

Change the Weather History Date:

Monday, September 16, 2013

  Actual Average Record
Temperature  
Mean Temperature 84 °F 80 °F  
Max Temperature 92 °F 90 °F 100 °F (1954)
Min Temperature 76 °F 69 °F 55 °F (1945)
Degree Days  
Heating Degree Days 0 0  
Month to date heating degree days 0 0  
Since 1 July heating degree days 0 0  
Cooling Degree Days 19 15  
Month to date cooling degree days 312 264  
Year to date cooling degree days 2806 2617  
Growing Degree Days 33 (Base 50)    
Moisture  
Dew Point 75 °F    
Average Humidity 75    
Maximum Humidity 94    
Minimum Humidity 56    
Precipitation  
Precipitation 0.00 in 0.14 in 2.29 in (1998)
Month to date precipitation 2.65 2.39  
Year to date precipitation 17.57 29.26  
Snow  
Snow 0.00 in - - ()
Month to date snowfall 0.0  
Since 1 July snowfall 0.0  
Since 1 September snowfall 0.0  
Snow Depth 0.00 in    
Sea Level Pressure  
Sea Level Pressure 29.96 in    
Wind  
Wind Speed 11 mph (East)    
Max Wind Speed 23 mph    
Max Gust Speed 28 mph    
Visibility 9 miles    
Events      
T = Trace of Precipitation, MM = Missing Value Source: NWS Daily Summary

Daily Weather History Graph

Daily Weather History Graph

Search for Another Location

Airport or City:

Trip Planner

Search our weather history database for the weather conditions in past years. The results will help you decide how hot, cold, wet, or windy it might be!

Date:

Astronomy

Sep. 16, 2013 Rise Set
Actual Time 7:13 AM CDT 7:31 PM CDT
Civil Twilight 6:49 AM CDT 7:54 PM CDT
Nautical Twilight 6:21 AM CDT 8:22 PM CDT
Astronomical Twilight 5:53 AM CDT 8:50 PM CDT
Moon 5:32 PM CDT (9/16) 4:12 AM CDT (9/16)
Length of Visible Light 13h 05m
Length of Day
12h 17m
Waxing Gibbous, 90% of the Moon is Illuminated
Sep 16
Waxing Gibbous
Sep 19
Full
Sep 26
Last Quarter
Oct 4
New
Oct 11
First Quarter

Hourly Weather History & Observations

Time (CDT) Temp. Heat Index Dew Point Humidity Pressure Visibility Wind Dir Wind Speed Gust Speed Precip Events Conditions
12:51 AM 79.0 °F - 75.9 °F 90% 29.96 in 9.0 mi ENE 8.1 mph - N/A   Clear
1:51 AM 79.0 °F - 75.9 °F 90% 29.96 in 8.0 mi ENE 8.1 mph - N/A   Clear
2:51 AM 78.1 °F - 75.9 °F 93% 29.95 in 8.0 mi ENE 6.9 mph - N/A   Partly Cloudy
3:51 AM 78.1 °F - 75.9 °F 93% 29.95 in 8.0 mi ENE 8.1 mph - N/A   Clear
4:51 AM 77.0 °F - 75.0 °F 94% 29.94 in 8.0 mi NE 5.8 mph - N/A   Clear
5:51 AM 77.0 °F - 73.9 °F 90% 29.93 in 9.0 mi NE 6.9 mph - N/A   Clear
6:51 AM 75.9 °F - 73.9 °F 94% 29.95 in 8.0 mi NE 6.9 mph - N/A   Clear
7:51 AM 77.0 °F - 75.0 °F 94% 29.97 in 8.0 mi ENE 9.2 mph - N/A   Partly Cloudy
8:51 AM 81.0 °F 87.3 °F 75.9 °F 85% 29.99 in 10.0 mi ENE 10.4 mph - N/A   Mostly Cloudy
9:51 AM 86.0 °F 96.9 °F 77.0 °F 74% 29.99 in 10.0 mi East 12.7 mph 21.9 mph N/A   Partly Cloudy
10:51 AM 89.1 °F 99.1 °F 75.0 °F 63% 29.99 in 10.0 mi ESE 19.6 mph 26.5 mph N/A   Mostly Cloudy
11:51 AM 87.1 °F 95.4 °F 73.9 °F 65% 30.01 in 10.0 mi East 9.2 mph 19.6 mph N/A   Partly Cloudy
12:51 PM 88.0 °F 95.6 °F 73.0 °F 61% 30.00 in 10.0 mi East 13.8 mph - N/A   Partly Cloudy
1:51 PM 89.1 °F 97.0 °F 73.0 °F 59% 29.97 in 10.0 mi ESE 13.8 mph 18.4 mph N/A   Clear
2:51 PM 89.1 °F 96.0 °F 72.0 °F 57% 29.95 in 10.0 mi SE 16.1 mph - N/A   Clear
3:51 PM 90.0 °F 97.9 °F 73.0 °F 57% 29.93 in 10.0 mi SE 19.6 mph 24.2 mph N/A   Clear
4:51 PM 89.1 °F 95.0 °F 71.1 °F 55% 29.92 in 10.0 mi SE 18.4 mph 25.3 mph N/A   Clear
5:51 PM 87.1 °F 94.5 °F 73.0 °F 63% 29.93 in 10.0 mi ESE 16.1 mph - N/A   Clear
6:51 PM 86.0 °F 93.8 °F 73.9 °F 67% 29.94 in 10.0 mi SE 15.0 mph 23.0 mph N/A   Clear
7:51 PM 84.0 °F 91.9 °F 75.0 °F 74% 29.96 in 10.0 mi ESE 8.1 mph - N/A   Clear
8:51 PM 82.9 °F 90.8 °F 75.9 °F 79% 29.98 in 10.0 mi ESE 9.2 mph - N/A   Clear
9:51 PM 80.1 °F 85.4 °F 75.9 °F 87% 29.99 in 10.0 mi ENE 4.6 mph - N/A   Clear
10:51 PM 79.0 °F - 75.9 °F 90% 30.00 in 10.0 mi ENE 4.6 mph - N/A   Clear
11:51 PM 78.1 °F - 75.9 °F 93% 30.00 in 9.0 mi NE 4.6 mph - N/A   Clear